Time,TemperatureF,DewpointF,PressureIn,WindDirection,WindDirectionDegrees,WindSpeedMPH,WindSpeedGustMPH,Humidity,HourlyPrecipIn,Conditions,Clouds,dailyrainin,SolarRadiationWatts/m^2,SoftwareType,DateUTC
2013-01-15 00:03:00,14.4,10.2,30.57,ESE,114,0.0,0.0,83,0.00,,---,0.00,0.00,VWS V14.01,2013-01-15 06:03:00,
2013-01-15 00:08:00,14.4,12.5,30.57,ESE,115,0.0,0.0,92,0.00,,---,0.00,0.00,VWS V14.01,2013-01-15 06:08:00,
2013-01-15 00:13:00,14.3,10.4,30.57,ESE,114,0.0,0.0,84,0.00,,---,0.00,0.00,VWS V14.01,2013-01-15 06:13:00,
2013-01-15 00:18:00,14.3,10.4,30.57,ESE,115,0.0,0.0,84,0.00,,---,0.00,0.00,VWS V14.01,2013-01-15 06:18:00,
2013-01-15 00:23:00,14.2,10.3,30.57,ESE,114,0.0,0.0,84,0.00,,---,0.00,0.00,VWS V14.01,2013-01-15 06:23:00,
2013-01-15 00:28:00,14.1,10.2,30.57,ESE,115,0.0,0.0,84,0.00,,---,0.00,0.00,VWS V14.01,2013-01-15 06:28:00,
2013-01-15 00:33:00,14.1,10.2,30.57,ESE,114,0.0,0.0,84,0.00,,---,0.00,0.00,VWS V14.01,2013-01-15 06:33:00,
2013-01-15 00:38:00,14.1,10.2,30.57,ESE,114,0.0,0.0,84,0.00,,---,0.00,0.00,VWS V14.01,2013-01-15 06:38:00,
2013-01-15 00:43:00,14.0,10.1,30.57,ESE,114,0.0,0.0,84,0.00,,---,0.00,0.00,VWS V14.01,2013-01-15 06:43:00,
2013-01-15 00:48:00,14.0,10.1,30.57,ESE,114,0.0,0.0,84,0.00,,---,0.00,0.00,VWS V14.01,2013-01-15 06:48:00,
2013-01-15 00:53:00,13.9,10.0,30.57,ESE,114,0.0,0.0,84,0.00,,---,0.00,0.00,VWS V14.01,2013-01-15 06:53:00,
2013-01-15 00:57:00,13.8,9.9,30.57,ESE,114,0.0,0.0,84,0.00,,---,0.00,0.00,VWS V14.01,2013-01-15 06:57:00,
2013-01-15 01:02:00,13.8,10.1,30.57,ESE,114,0.0,0.0,85,0.00,,---,0.00,0.00,VWS V14.01,2013-01-15 07:02:00,
2013-01-15 01:07:00,13.7,10.0,30.57,ESE,114,0.0,0.0,85,0.00,,---,0.00,0.00,VWS V14.01,2013-01-15 07:07:00,
2013-01-15 01:12:00,13.7,10.0,30.56,ESE,114,0.0,0.0,85,0.00,,---,0.00,0.00,VWS V14.01,2013-01-15 07:12:00,
2013-01-15 01:17:00,13.6,9.9,30.56,ESE,115,0.0,0.0,85,0.00,,---,0.00,0.00,VWS V14.01,2013-01-15 07:17:00,
2013-01-15 01:22:00,13.6,9.9,30.56,ESE,115,0.0,0.0,85,0.00,,---,0.00,0.00,VWS V14.01,2013-01-15 07:22:00,
2013-01-15 01:27:00,13.6,9.9,30.56,ESE,114,0.0,0.0,85,0.00,,---,0.00,0.00,VWS V14.01,2013-01-15 07:27:00,
2013-01-15 01:32:00,13.6,9.9,30.56,ESE,115,0.0,0.0,85,0.00,,---,0.00,0.00,VWS V14.01,2013-01-15 07:32:00,
2013-01-15 01:37:00,13.7,10.3,30.56,ESE,114,0.0,0.0,86,0.00,,---,0.00,0.00,VWS V14.01,2013-01-15 07:37:00,
2013-01-15 01:42:00,13.8,10.4,30.56,ESE,114,0.0,0.0,86,0.00,,---,0.00,0.00,VWS V14.01,2013-01-15 07:42:00,
2013-01-15 01:47:00,13.9,10.5,30.56,ESE,114,0.0,0.0,86,0.00,,---,0.00,0.00,VWS V14.01,2013-01-15 07:47:00,
2013-01-15 01:52:00,13.7,10.3,30.56,ESE,115,0.0,0.0,86,0.00,,---,0.00,0.00,VWS V14.01,2013-01-15 07:52:00,
2013-01-15 01:57:00,13.6,10.2,30.57,ESE,114,0.0,0.0,86,0.00,,---,0.00,0.00,VWS V14.01,2013-01-15 07:57:00,
2013-01-15 02:02:00,13.4,10.0,30.57,ESE,114,0.0,0.0,86,0.00,,---,0.00,0.00,VWS V14.01,2013-01-15 08:02:00,
2013-01-15 02:07:00,13.3,9.6,30.57,ESE,114,0.0,0.0,85,0.00,,---,0.00,0.00,VWS V14.01,2013-01-15 08:07:00,
2013-01-15 02:12:00,13.1,9.7,30.57,ESE,114,0.0,0.0,86,0.00,,---,0.00,0.00,VWS V14.01,2013-01-15 08:12:00,
2013-01-15 02:17:00,13.1,9.7,30.56,ESE,114,0.0,0.0,86,0.00,,---,0.00,0.00,VWS V14.01,2013-01-15 08:17:00,
2013-01-15 02:22:00,13.0,9.6,30.57,ESE,114,0.0,0.0,86,0.00,,---,0.00,0.00,VWS V14.01,2013-01-15 08:22:00,
2013-01-15 02:27:00,13.1,9.7,30.57,ESE,114,0.0,0.0,86,0.00,,---,0.00,0.00,VWS V14.01,2013-01-15 08:27:00,
2013-01-15 02:32:00,13.1,9.7,30.56,ESE,114,0.0,0.0,86,0.00,,---,0.00,0.00,VWS V14.01,2013-01-15 08:32:00,
2013-01-15 02:37:00,13.1,9.7,30.56,ESE,114,0.0,0.0,86,0.00,,---,0.00,0.00,VWS V14.01,2013-01-15 08:37:00,
2013-01-15 02:42:00,13.1,9.7,30.56,ESE,115,0.0,0.0,86,0.00,,---,0.00,0.00,VWS V14.01,2013-01-15 08:42:00,
2013-01-15 02:47:00,13.2,9.8,30.55,ESE,114,0.0,0.0,86,0.00,,---,0.00,0.00,VWS V14.01,2013-01-15 08:47:00,
2013-01-15 02:52:00,13.2,9.8,30.55,ESE,114,0.0,0.0,86,0.00,,---,0.00,0.00,VWS V14.01,2013-01-15 08:52:00,
2013-01-15 02:57:00,13.2,9.8,30.55,ESE,114,0.0,0.0,86,0.00,,---,0.00,0.00,VWS V14.01,2013-01-15 08:57:00,
2013-01-15 03:02:00,13.2,9.8,30.55,ESE,115,0.0,0.0,86,0.00,,---,0.00,0.00,VWS V14.01,2013-01-15 09:02:00,
2013-01-15 03:07:00,13.1,9.7,30.55,ESE,114,0.0,0.0,86,0.00,,---,0.00,0.00,VWS V14.01,2013-01-15 09:07:00,
2013-01-15 03:12:00,13.0,9.6,30.55,ESE,114,0.0,0.0,86,0.00,,---,0.00,0.00,VWS V14.01,2013-01-15 09:12:00,
2013-01-15 03:17:00,13.0,9.6,30.55,ESE,115,0.0,0.0,86,0.00,,---,0.00,0.00,VWS V14.01,2013-01-15 09:17:00,
2013-01-15 03:22:00,13.0,9.6,30.54,ESE,114,0.0,0.0,86,0.00,,---,0.00,0.00,VWS V14.01,2013-01-15 09:22:00,
2013-01-15 03:27:00,12.9,9.5,30.54,ESE,114,0.0,0.0,86,0.00,,---,0.00,0.00,VWS V14.01,2013-01-15 09:27:00,
2013-01-15 03:32:00,13.0,9.6,30.54,ESE,114,0.0,0.0,86,0.00,,---,0.00,0.00,VWS V14.01,2013-01-15 09:32:00,
2013-01-15 03:37:00,13.0,9.6,30.54,ESE,114,0.0,0.0,86,0.00,,---,0.00,0.00,VWS V14.01,2013-01-15 09:37:00,
2013-01-15 03:42:00,13.0,9.6,30.53,ESE,114,0.0,0.0,86,0.00,,---,0.00,0.00,VWS V14.01,2013-01-15 09:42:00,
2013-01-15 03:47:00,13.0,9.6,30.53,ESE,114,0.0,0.0,86,0.00,,---,0.00,0.00,VWS V14.01,2013-01-15 09:47:00,
2013-01-15 03:52:00,12.9,9.5,30.54,ESE,114,0.0,0.0,86,0.00,,---,0.00,0.00,VWS V14.01,2013-01-15 09:52:00,
2013-01-15 03:57:00,12.8,9.4,30.54,ESE,114,0.0,0.0,86,0.00,,---,0.00,0.00,VWS V14.01,2013-01-15 09:57:00,
2013-01-15 04:02:00,12.9,9.5,30.54,ESE,114,0.0,0.0,86,0.00,,---,0.00,0.00,VWS V14.01,2013-01-15 10:02:00,
2013-01-15 04:07:00,12.8,9.4,30.54,ESE,114,0.0,0.0,86,0.00,,---,0.00,0.00,VWS V14.01,2013-01-15 10:07:00,
2013-01-15 04:12:00,12.8,9.4,30.53,ESE,114,0.0,0.0,86,0.00,,---,0.00,0.00,VWS V14.01,2013-01-15 10:12:00,
2013-01-15 04:17:00,12.7,9.3,30.53,ESE,115,0.0,0.0,86,0.00,,---,0.00,0.00,VWS V14.01,2013-01-15 10:17:00,
2013-01-15 04:22:00,12.7,9.3,30.52,ESE,115,0.0,0.0,86,0.00,,---,0.00,0.00,VWS V14.01,2013-01-15 10:22:00,
2013-01-15 04:27:00,12.9,9.5,30.53,ESE,115,0.0,0.0,86,0.00,,---,0.00,0.00,VWS V14.01,2013-01-15 10:27:00,
2013-01-15 04:32:00,12.9,9.5,30.53,ESE,114,0.0,0.0,86,0.00,,---,0.00,0.00,VWS V14.01,2013-01-15 10:32:00,
2013-01-15 04:37:00,12.9,9.5,30.52,ESE,114,0.0,0.0,86,0.00,,---,0.00,0.00,VWS V14.01,2013-01-15 10:37:00,
2013-01-15 04:42:00,12.8,9.4,30.51,ESE,114,0.0,0.0,86,0.00,,---,0.00,0.00,VWS V14.01,2013-01-15 10:42:00,
2013-01-15 04:47:00,12.9,9.5,30.51,ESE,114,0.0,1.0,86,0.00,,---,0.00,0.00,VWS V14.01,2013-01-15 10:47:00,
2013-01-15 04:52:00,13.0,9.9,30.51,ESE,114,0.0,1.0,87,0.00,,---,0.00,0.00,VWS V14.01,2013-01-15 10:52:00,
2013-01-15 04:57:00,13.3,10.2,30.51,ESE,114,0.0,0.0,87,0.00,,---,0.00,0.00,VWS V14.01,2013-01-15 10:57:00,
2013-01-15 05:02:00,13.6,10.2,30.51,ESE,114,0.0,1.0,86,0.00,,---,0.00,0.00,VWS V14.01,2013-01-15 11:02:00,
2013-01-15 05:07:00,13.8,10.4,30.51,ESE,114,0.0,0.0,86,0.00,,---,0.00,0.00,VWS V14.01,2013-01-15 11:07:00,
2013-01-15 05:12:00,14.0,10.6,30.51,ESE,115,0.0,1.0,86,0.00,,---,0.00,0.00,VWS V14.01,2013-01-15 11:12:00,
2013-01-15 05:17:00,14.1,10.7,30.51,ESE,114,0.0,0.0,86,0.00,,---,0.00,0.00,VWS V14.01,2013-01-15 11:17:00,
2013-01-15 05:22:00,14.3,10.9,30.52,ESE,115,0.0,0.0,86,0.00,,---,0.00,0.00,VWS V14.01,2013-01-15 11:22:00,
2013-01-15 05:27:00,14.3,10.6,30.53,ESE,114,0.0,0.0,85,0.00,,---,0.00,0.00,VWS V14.01,2013-01-15 11:27:00,
2013-01-15 05:32:00,14.4,10.7,30.53,ESE,114,0.0,0.0,85,0.00,,---,0.00,0.00,VWS V14.01,2013-01-15 11:32:00,
2013-01-15 05:37:00,14.4,10.7,30.53,ESE,114,0.0,0.0,85,0.00,,---,0.00,0.00,VWS V14.01,2013-01-15 11:37:00,
2013-01-15 05:42:00,14.4,10.7,30.53,ESE,115,0.0,0.0,85,0.00,,---,0.00,0.00,VWS V14.01,2013-01-15 11:42:00,
2013-01-15 05:47:00,14.3,10.6,30.53,ESE,114,0.0,0.0,85,0.00,,---,0.00,0.00,VWS V14.01,2013-01-15 11:47:00,
2013-01-15 05:52:00,14.3,10.4,30.52,ESE,114,0.0,0.0,84,0.00,,---,0.00,0.00,VWS V14.01,2013-01-15 11:52:00,
2013-01-15 05:57:00,14.3,10.6,30.52,ESE,115,0.0,0.0,85,0.00,,---,0.00,0.00,VWS V14.01,2013-01-15 11:57:00,
2013-01-15 06:02:00,14.2,10.3,30.53,ESE,114,0.0,0.0,84,0.00,,---,0.00,0.00,VWS V14.01,2013-01-15 12:02:00,
2013-01-15 06:07:00,14.1,10.2,30.53,ESE,115,0.0,0.0,84,0.00,,---,0.00,0.00,VWS V14.01,2013-01-15 12:07:00,
2013-01-15 06:12:00,14.1,10.2,30.53,ESE,114,0.0,0.0,84,0.00,,---,0.00,0.00,VWS V14.01,2013-01-15 12:12:00,
2013-01-15 06:17:00,14.0,10.1,30.53,ESE,114,0.0,0.0,84,0.00,,---,0.00,0.00,VWS V14.01,2013-01-15 12:17:00,
2013-01-15 06:22:00,13.9,10.0,30.53,ESE,115,0.0,0.0,84,0.00,,---,0.00,0.00,VWS V14.01,2013-01-15 12:22:00,
2013-01-15 06:27:00,13.7,9.8,30.54,ESE,115,0.0,0.0,84,0.00,,---,0.00,0.00,VWS V14.01,2013-01-15 12:27:00,
2013-01-15 06:32:00,13.6,9.7,30.53,ESE,115,0.0,0.0,84,0.00,,---,0.00,0.00,VWS V14.01,2013-01-15 12:32:00,
2013-01-15 06:37:00,13.5,9.6,30.54,ESE,114,0.0,0.0,84,0.00,,---,0.00,0.00,VWS V14.01,2013-01-15 12:37:00,
2013-01-15 06:42:00,13.5,9.6,30.54,ESE,115,0.0,0.0,84,0.00,,---,0.00,0.00,VWS V14.01,2013-01-15 12:42:00,
2013-01-15 06:47:00,13.5,9.8,30.54,ESE,114,0.0,0.0,85,0.00,,---,0.00,0.00,VWS V14.01,2013-01-15 12:47:00,
2013-01-15 06:52:00,13.5,9.8,30.54,ESE,115,0.0,0.0,85,0.00,,---,0.00,0.00,VWS V14.01,2013-01-15 12:52:00,
2013-01-15 06:57:00,13.4,9.7,30.53,ESE,114,0.0,0.0,85,0.00,,---,0.00,0.00,VWS V14.01,2013-01-15 12:57:00,
2013-01-15 07:02:00,13.3,9.6,30.54,ESE,115,0.0,0.0,85,0.00,,---,0.00,0.00,VWS V14.01,2013-01-15 13:02:00,
2013-01-15 07:07:00,13.1,9.4,30.55,ESE,114,0.0,0.0,85,0.00,,---,0.00,0.00,VWS V14.01,2013-01-15 13:07:00,
2013-01-15 07:12:00,12.8,9.1,30.56,ESE,114,0.0,0.0,85,0.00,,---,0.00,0.00,VWS V14.01,2013-01-15 13:12:00,
2013-01-15 07:17:00,12.7,9.1,30.56,ESE,115,0.0,0.0,85,0.00,,---,0.00,0.00,VWS V14.01,2013-01-15 13:17:00,
2013-01-15 07:22:00,12.6,9.0,30.57,ESE,115,0.0,0.0,85,0.00,,---,0.00,0.00,VWS V14.01,2013-01-15 13:22:00,
2013-01-15 07:27:00,12.6,9.0,30.57,ESE,115,0.0,0.0,85,0.00,,---,0.00,0.00,VWS V14.01,2013-01-15 13:27:00,
2013-01-15 07:32:00,12.6,9.0,30.56,ESE,114,0.0,0.0,85,0.00,,---,0.00,5.00,VWS V14.01,2013-01-15 13:32:00,
2013-01-15 07:37:00,12.8,9.4,30.56,ESE,114,0.0,0.0,86,0.00,,---,0.00,7.00,VWS V14.01,2013-01-15 13:37:00,
2013-01-15 07:42:00,12.9,9.5,30.57,ESE,114,0.0,0.0,86,0.00,,---,0.00,9.00,VWS V14.01,2013-01-15 13:42:00,
2013-01-15 07:47:00,13.1,9.7,30.57,ESE,115,0.0,0.0,86,0.00,,---,0.00,12.00,VWS V14.01,2013-01-15 13:47:00,
2013-01-15 07:52:00,13.4,10.3,30.57,ESE,114,0.0,0.0,87,0.00,,---,0.00,21.00,VWS V14.01,2013-01-15 13:52:00,
2013-01-15 07:56:00,13.5,10.4,30.57,ESE,114,0.0,0.0,87,0.00,,---,0.00,30.00,VWS V14.01,2013-01-15 13:56:00,
2013-01-15 08:01:00,13.6,10.5,30.57,ESE,114,0.0,0.0,87,0.00,,---,0.00,63.00,VWS V14.01,2013-01-15 14:01:00,
2013-01-15 08:06:00,14.1,10.9,30.57,ESE,114,0.0,0.0,87,0.00,,---,0.00,97.00,VWS V14.01,2013-01-15 14:06:00,
2013-01-15 08:11:00,15.1,11.9,30.57,ESE,114,0.0,0.0,87,0.00,,---,0.00,123.00,VWS V14.01,2013-01-15 14:11:00,
2013-01-15 08:16:00,16.1,12.9,30.57,ESE,114,0.0,0.0,87,0.00,,---,0.00,120.00,VWS V14.01,2013-01-15 14:16:00,
2013-01-15 08:21:00,16.8,13.4,30.57,ESE,114,0.0,0.0,86,0.00,,---,0.00,114.00,VWS V14.01,2013-01-15 14:21:00,
2013-01-15 08:26:00,17.3,13.3,30.57,ESE,114,0.0,0.0,84,0.00,,---,0.00,51.00,VWS V14.01,2013-01-15 14:26:00,
2013-01-15 08:31:00,17.4,13.1,30.57,ESE,114,0.0,0.0,83,0.00,,---,0.00,60.00,VWS V14.01,2013-01-15 14:31:00,
2013-01-15 08:36:00,17.6,13.1,30.56,ESE,115,0.0,0.0,82,0.00,,---,0.00,62.00,VWS V14.01,2013-01-15 14:36:00,
2013-01-15 08:41:00,17.8,12.7,30.57,ESE,115,0.0,0.0,80,0.00,,---,0.00,123.00,VWS V14.01,2013-01-15 14:41:00,
2013-01-15 08:46:00,18.2,12.8,30.56,ESE,115,0.0,2.0,79,0.00,,---,0.00,116.00,VWS V14.01,2013-01-15 14:46:00,
2013-01-15 08:51:00,18.6,12.9,30.56,ESE,115,0.0,0.0,78,0.00,,---,0.00,70.00,VWS V14.01,2013-01-15 14:51:00,
2013-01-15 08:56:00,19.0,13.0,30.56,ESE,114,0.0,0.0,77,0.00,,---,0.00,146.00,VWS V14.01,2013-01-15 14:56:00,
2013-01-15 09:01:00,19.7,13.7,30.56,ESE,114,0.0,0.0,77,0.00,,---,0.00,156.00,VWS V14.01,2013-01-15 15:01:00,
2013-01-15 09:06:00,20.0,13.7,30.56,ESE,115,0.0,0.0,76,0.00,,---,0.00,97.00,VWS V14.01,2013-01-15 15:06:00,
2013-01-15 09:11:00,20.3,13.7,30.55,ESE,115,0.0,0.0,75,0.00,,---,0.00,90.00,VWS V14.01,2013-01-15 15:11:00,
2013-01-15 09:16:00,20.6,13.9,30.55,ESE,114,0.0,0.0,75,0.00,,---,0.00,104.00,VWS V14.01,2013-01-15 15:16:00,
2013-01-15 09:21:00,20.8,14.1,30.54,ESE,114,0.0,0.0,75,0.00,,---,0.00,155.00,VWS V14.01,2013-01-15 15:21:00,
2013-01-15 09:26:00,21.5,14.8,30.53,ESE,115,0.0,0.0,75,0.00,,---,0.00,262.00,VWS V14.01,2013-01-15 15:26:00,
2013-01-15 09:31:00,21.8,14.5,30.52,ESE,113,0.0,0.0,73,0.00,,---,0.00,241.00,VWS V14.01,2013-01-15 15:31:00,
2013-01-15 09:36:00,22.2,14.6,30.52,East,101,0.0,0.0,72,0.00,,---,0.00,236.00,VWS V14.01,2013-01-15 15:36:00,
2013-01-15 09:41:00,22.5,14.5,30.52,East,91,5.0,5.0,71,0.00,,---,0.00,227.00,VWS V14.01,2013-01-15 15:41:00,
2013-01-15 09:46:00,22.5,14.2,30.53,ENE,78,4.0,6.0,70,0.00,,---,0.00,113.00,VWS V14.01,2013-01-15 15:46:00,
2013-01-15 09:51:00,22.7,14.4,30.53,ENE,74,2.0,4.0,70,0.00,,---,0.00,230.00,VWS V14.01,2013-01-15 15:51:00,
2013-01-15 09:56:00,23.1,14.8,30.53,East,98,0.0,2.0,70,0.00,,---,0.00,165.00,VWS V14.01,2013-01-15 15:56:00,
2013-01-15 10:01:00,23.5,14.8,30.53,East,80,0.0,4.0,69,0.00,,---,0.00,294.00,VWS V14.01,2013-01-15 16:01:00,
2013-01-15 10:06:00,23.8,14.8,30.52,ENE,75,0.0,3.0,68,0.00,,---,0.00,327.00,VWS V14.01,2013-01-15 16:06:00,
2013-01-15 10:11:00,23.9,14.9,30.52,ENE,78,0.0,0.0,68,0.00,,---,0.00,399.00,VWS V14.01,2013-01-15 16:11:00,
2013-01-15 10:16:00,24.6,15.6,30.52,NE,46,2.0,3.0,68,0.00,,---,0.00,190.00,VWS V14.01,2013-01-15 16:16:00,
2013-01-15 10:21:00,24.6,14.9,30.52,ESE,102,2.0,3.0,66,0.00,,---,0.00,185.00,VWS V14.01,2013-01-15 16:21:00,
2013-01-15 10:26:00,24.6,15.2,30.52,ESE,102,0.0,0.0,67,0.00,,---,0.00,181.00,VWS V14.01,2013-01-15 16:26:00,
2013-01-15 10:31:00,24.7,15.7,30.52,ENE,61,4.0,4.0,68,0.00,,---,0.00,232.00,VWS V14.01,2013-01-15 16:31:00,
2013-01-15 10:36:00,24.7,15.3,30.52,East,83,3.0,3.0,67,0.00,,---,0.00,288.00,VWS V14.01,2013-01-15 16:36:00,
2013-01-15 10:41:00,24.7,15.0,30.52,East,90,5.0,5.0,66,0.00,,---,0.00,272.00,VWS V14.01,2013-01-15 16:41:00,
2013-01-15 10:46:00,24.8,15.1,30.52,East,94,3.0,3.0,66,0.00,,---,0.00,264.00,VWS V14.01,2013-01-15 16:46:00,
2013-01-15 10:51:00,24.9,15.5,30.52,ESE,109,3.0,6.0,67,0.00,,---,0.00,294.00,VWS V14.01,2013-01-15 16:51:00,
2013-01-15 10:56:00,25.1,15.4,30.52,ESE,113,6.0,9.0,66,0.00,,---,0.00,325.00,VWS V14.01,2013-01-15 16:56:00,
2013-01-15 11:01:00,25.2,15.4,30.52,ENE,63,5.0,6.0,66,0.00,,---,0.00,306.00,VWS V14.01,2013-01-15 17:01:00,
2013-01-15 11:06:00,25.2,15.4,30.51,East,79,5.0,7.0,66,0.00,,---,0.00,271.00,VWS V14.01,2013-01-15 17:06:00,
2013-01-15 11:11:00,25.4,16.0,30.50,NE,38,2.0,2.0,67,0.00,,---,0.00,250.00,VWS V14.01,2013-01-15 17:11:00,
2013-01-15 11:16:00,25.6,16.2,30.50,ENE,59,2.0,3.0,67,0.00,,---,0.00,214.00,VWS V14.01,2013-01-15 17:16:00,
2013-01-15 11:21:00,25.6,16.2,30.50,ENE,65,3.0,4.0,67,0.00,,---,0.00,243.00,VWS V14.01,2013-01-15 17:21:00,
2013-01-15 11:26:00,25.8,16.0,30.50,ENE,64,1.0,2.0,66,0.00,,---,0.00,327.00,VWS V14.01,2013-01-15 17:26:00,
2013-01-15 11:31:00,26.1,16.3,30.49,ENE,61,0.0,1.0,66,0.00,,---,0.00,352.00,VWS V14.01,2013-01-15 17:31:00,
2013-01-15 11:36:00,26.2,15.7,30.49,East,87,0.0,1.0,64,0.00,,---,0.00,283.00,VWS V14.01,2013-01-15 17:36:00,
2013-01-15 11:41:00,26.3,15.8,30.49,East,84,1.0,3.0,64,0.00,,---,0.00,301.00,VWS V14.01,2013-01-15 17:41:00,
2013-01-15 11:46:00,26.3,15.8,30.48,ENE,74,0.0,0.0,64,0.00,,---,0.00,338.00,VWS V14.01,2013-01-15 17:46:00,
2013-01-15 11:51:00,26.8,16.3,30.48,ENE,74,0.0,0.0,64,0.00,,---,0.00,239.00,VWS V14.01,2013-01-15 17:51:00,
2013-01-15 11:56:00,27.0,17.2,30.49,SW,225,0.0,0.0,66,0.00,,---,0.00,350.00,VWS V14.01,2013-01-15 17:56:00,
2013-01-15 12:01:00,27.0,17.5,30.49,SW,226,0.0,0.0,67,0.00,,---,0.00,308.00,VWS V14.01,2013-01-15 18:01:00,
2013-01-15 12:06:00,27.3,17.8,30.48,SW,229,0.0,2.0,67,0.00,,---,0.00,422.00,VWS V14.01,2013-01-15 18:06:00,
2013-01-15 12:11:00,27.6,18.1,30.48,WSW,252,4.0,4.0,67,0.00,,---,0.00,517.00,VWS V14.01,2013-01-15 18:11:00,
2013-01-15 12:16:00,27.4,17.5,30.48,WSW,252,0.0,0.0,66,0.00,,---,0.00,237.00,VWS V14.01,2013-01-15 18:16:00,
2013-01-15 12:21:00,27.5,18.0,30.47,WSW,252,0.0,0.0,67,0.00,,---,0.00,160.00,VWS V14.01,2013-01-15 18:21:00,
2013-01-15 12:26:00,27.5,17.6,30.47,WSW,252,0.0,0.0,66,0.00,,---,0.00,158.00,VWS V14.01,2013-01-15 18:26:00,
2013-01-15 12:31:00,27.4,17.2,30.47,WSW,252,0.0,0.0,65,0.00,,---,0.00,304.00,VWS V14.01,2013-01-15 18:31:00,
2013-01-15 12:36:00,27.4,17.5,30.47,WSW,252,0.0,0.0,66,0.00,,---,0.00,566.00,VWS V14.01,2013-01-15 18:36:00,
2013-01-15 12:41:00,27.7,17.8,30.46,WSW,254,0.0,0.0,66,0.00,,---,0.00,563.00,VWS V14.01,2013-01-15 18:41:00,
2013-01-15 12:46:00,28.2,18.0,30.46,West,270,0.0,0.0,65,0.00,,---,0.00,545.00,VWS V14.01,2013-01-15 18:46:00,
2013-01-15 12:51:00,28.6,18.3,30.46,West,270,0.0,0.0,65,0.00,,---,0.00,555.00,VWS V14.01,2013-01-15 18:51:00,
2013-01-15 12:56:00,28.7,17.7,30.46,WSW,240,2.0,2.0,63,0.00,,---,0.00,555.00,VWS V14.01,2013-01-15 18:56:00,
2013-01-15 13:01:00,28.7,17.3,30.45,WSW,237,0.0,0.0,62,0.00,,---,0.00,550.00,VWS V14.01,2013-01-15 19:01:00,
2013-01-15 13:06:00,29.1,18.1,30.45,WSW,237,2.0,2.0,63,0.00,,---,0.00,550.00,VWS V14.01,2013-01-15 19:06:00,
2013-01-15 13:11:00,29.1,17.0,30.45,WSW,240,0.0,0.0,60,0.00,,---,0.00,545.00,VWS V14.01,2013-01-15 19:11:00,
2013-01-15 13:16:00,29.2,16.7,30.45,WSW,240,0.0,0.0,59,0.00,,---,0.00,526.00,VWS V14.01,2013-01-15 19:16:00,
2013-01-15 13:21:00,28.9,13.9,30.45,ESE,120,0.0,0.0,53,0.00,,---,0.00,555.00,VWS V14.01,2013-01-15 19:21:00,
2013-01-15 13:26:00,28.9,13.9,30.45,ESE,120,0.0,0.0,53,0.00,,---,0.00,585.00,VWS V14.01,2013-01-15 19:26:00,
2013-01-15 13:31:00,29.2,14.6,30.45,ESE,120,0.0,0.0,54,0.00,,---,0.00,580.00,VWS V14.01,2013-01-15 19:31:00,
2013-01-15 13:36:00,29.9,14.4,30.44,ESE,120,0.0,0.0,52,0.00,,---,0.00,575.00,VWS V14.01,2013-01-15 19:36:00,
2013-01-15 13:41:00,30.1,15.1,30.44,ESE,119,0.0,0.0,53,0.00,,---,0.00,606.00,VWS V14.01,2013-01-15 19:41:00,
2013-01-15 13:46:00,30.7,17.3,30.44,SSW,203,0.0,1.0,57,0.00,,---,0.00,591.00,VWS V14.01,2013-01-15 19:46:00,
2013-01-15 13:51:00,30.9,16.6,30.44,WSW,245,1.0,2.0,55,0.00,,---,0.00,628.00,VWS V14.01,2013-01-15 19:51:00,
2013-01-15 13:56:00,30.9,17.9,30.44,WSW,246,0.0,0.0,58,0.00,,---,0.00,640.00,VWS V14.01,2013-01-15 19:56:00,
2013-01-15 14:01:00,31.0,18.8,30.44,WSW,246,0.0,0.0,60,0.00,,---,0.00,434.00,VWS V14.01,2013-01-15 20:01:00,
2013-01-15 14:05:00,31.3,18.2,30.44,WSW,251,3.0,3.0,58,0.00,,---,0.00,578.00,VWS V14.01,2013-01-15 20:05:00,
2013-01-15 14:10:00,31.0,18.4,30.44,West,280,2.0,3.0,59,0.00,,---,0.00,329.00,VWS V14.01,2013-01-15 20:10:00,
2013-01-15 14:15:00,30.8,18.6,30.44,WNW,299,0.0,0.0,60,0.00,,---,0.00,265.00,VWS V14.01,2013-01-15 20:15:00,
2013-01-15 14:20:00,30.6,18.4,30.44,WNW,294,1.0,1.0,60,0.00,,---,0.00,183.00,VWS V14.01,2013-01-15 20:20:00,
2013-01-15 14:25:00,30.2,18.0,30.44,NW,325,0.0,0.0,60,0.00,,---,0.00,206.00,VWS V14.01,2013-01-15 20:25:00,
2013-01-15 14:30:00,29.9,18.1,30.45,NW,310,0.0,0.0,61,0.00,,---,0.00,211.00,VWS V14.01,2013-01-15 20:30:00,
2013-01-15 14:35:00,29.5,18.1,30.45,NW,311,0.0,0.0,62,0.00,,---,0.00,230.00,VWS V14.01,2013-01-15 20:35:00,
2013-01-15 14:40:00,29.4,18.4,30.45,NW,312,0.0,0.0,63,0.00,,---,0.00,174.00,VWS V14.01,2013-01-15 20:40:00,
2013-01-15 14:45:00,29.2,18.2,30.45,NW,311,0.0,0.0,63,0.00,,---,0.00,172.00,VWS V14.01,2013-01-15 20:45:00,
2013-01-15 14:50:00,29.0,18.0,30.44,NW,312,0.0,0.0,63,0.00,,---,0.00,239.00,VWS V14.01,2013-01-15 20:50:00,
2013-01-15 14:55:00,28.9,17.5,30.44,NW,311,0.0,0.0,62,0.00,,---,0.00,313.00,VWS V14.01,2013-01-15 20:55:00,
2013-01-15 15:00:00,29.1,18.1,30.44,WNW,298,0.0,0.0,63,0.00,,---,0.00,316.00,VWS V14.01,2013-01-15 21:00:00,
2013-01-15 15:05:00,29.3,18.6,30.44,WNW,298,0.0,1.0,64,0.00,,---,0.00,265.00,VWS V14.01,2013-01-15 21:05:00,
2013-01-15 15:10:00,29.4,18.0,30.44,WNW,298,0.0,0.0,62,0.00,,---,0.00,272.00,VWS V14.01,2013-01-15 21:10:00,
2013-01-15 15:15:00,29.3,17.9,30.44,WNW,292,0.0,0.0,62,0.00,,---,0.00,323.00,VWS V14.01,2013-01-15 21:15:00,
2013-01-15 15:20:00,29.3,17.5,30.45,WNW,292,0.0,0.0,61,0.00,,---,0.00,207.00,VWS V14.01,2013-01-15 21:20:00,
2013-01-15 15:25:00,29.2,17.8,30.44,WNW,292,0.0,0.0,62,0.00,,---,0.00,211.00,VWS V14.01,2013-01-15 21:25:00,
2013-01-15 15:30:00,29.6,18.6,30.44,WNW,292,0.0,0.0,63,0.00,,---,0.00,260.00,VWS V14.01,2013-01-15 21:30:00,
2013-01-15 15:35:00,29.8,18.4,30.44,WNW,292,0.0,0.0,62,0.00,,---,0.00,183.00,VWS V14.01,2013-01-15 21:35:00,
2013-01-15 15:40:00,29.6,17.8,30.44,WNW,292,0.0,0.0,61,0.00,,---,0.00,271.00,VWS V14.01,2013-01-15 21:40:00,
2013-01-15 15:45:00,29.5,17.7,30.44,WNW,292,0.0,0.0,61,0.00,,---,0.00,148.00,VWS V14.01,2013-01-15 21:45:00,
2013-01-15 15:50:00,29.3,17.1,30.44,WNW,292,0.0,0.0,60,0.00,,---,0.00,229.00,VWS V14.01,2013-01-15 21:50:00,
2013-01-15 15:55:00,29.3,17.9,30.44,WNW,292,0.0,0.0,62,0.00,,---,0.00,192.00,VWS V14.01,2013-01-15 21:55:00,
2013-01-15 16:00:00,29.6,18.2,30.44,WNW,302,0.0,1.0,62,0.00,,---,0.00,100.00,VWS V14.01,2013-01-15 22:00:00,
2013-01-15 16:05:00,29.7,17.9,30.43,WNW,302,0.0,0.0,61,0.00,,---,0.00,125.00,VWS V14.01,2013-01-15 22:05:00,
2013-01-15 16:10:00,29.7,17.5,30.43,WNW,302,0.0,1.0,60,0.00,,---,0.00,104.00,VWS V14.01,2013-01-15 22:10:00,
2013-01-15 16:15:00,29.7,18.3,30.43,WNW,302,0.0,0.0,62,0.00,,---,0.00,60.00,VWS V14.01,2013-01-15 22:15:00,
2013-01-15 16:20:00,29.6,17.8,30.42,WNW,303,0.0,2.0,61,0.00,,---,0.00,47.00,VWS V14.01,2013-01-15 22:20:00,
2013-01-15 16:25:00,29.3,17.5,30.42,WNW,303,0.0,1.0,61,0.00,,---,0.00,44.00,VWS V14.01,2013-01-15 22:25:00,
2013-01-15 16:30:00,29.2,17.8,30.42,WNW,303,0.0,0.0,62,0.00,,---,0.00,26.00,VWS V14.01,2013-01-15 22:30:00,
2013-01-15 16:35:00,29.0,17.6,30.42,WNW,303,0.0,0.0,62,0.00,,---,0.00,23.00,VWS V14.01,2013-01-15 22:35:00,
2013-01-15 16:40:00,28.8,17.4,30.42,WNW,303,0.0,1.0,62,0.00,,---,0.00,18.00,VWS V14.01,2013-01-15 22:40:00,
2013-01-15 16:45:00,28.5,17.1,30.41,WNW,303,0.0,2.0,62,0.00,,---,0.00,14.00,VWS V14.01,2013-01-15 22:45:00,
2013-01-15 16:50:00,28.2,16.9,30.41,WNW,303,0.0,0.0,62,0.00,,---,0.00,14.00,VWS V14.01,2013-01-15 22:50:00,
2013-01-15 16:55:00,28.0,16.7,30.41,WNW,303,0.0,0.0,62,0.00,,---,0.00,14.00,VWS V14.01,2013-01-15 22:55:00,
2013-01-15 17:00:00,27.9,16.6,30.41,WNW,303,0.0,0.0,62,0.00,,---,0.00,7.00,VWS V14.01,2013-01-15 23:00:00,
2013-01-15 17:05:00,27.7,16.8,30.41,WNW,303,0.0,1.0,63,0.00,,---,0.00,5.00,VWS V14.01,2013-01-15 23:05:00,
2013-01-15 17:10:00,27.6,17.0,30.41,WNW,303,0.0,0.0,64,0.00,,---,0.00,5.00,VWS V14.01,2013-01-15 23:10:00,
2013-01-15 17:15:00,27.4,16.5,30.41,WNW,303,0.0,1.0,63,0.00,,---,0.00,0.00,VWS V14.01,2013-01-15 23:15:00,
2013-01-15 17:20:00,27.3,16.4,30.40,WNW,303,0.0,0.0,63,0.00,,---,0.00,0.00,VWS V14.01,2013-01-15 23:20:00,
2013-01-15 17:25:00,27.1,16.6,30.40,WNW,303,0.0,0.0,64,0.00,,---,0.00,0.00,VWS V14.01,2013-01-15 23:25:00,
2013-01-15 17:30:00,27.0,16.8,30.40,WNW,303,0.0,0.0,65,0.00,,---,0.00,0.00,VWS V14.01,2013-01-15 23:30:00,
2013-01-15 17:35:00,27.0,17.2,30.40,WNW,303,0.0,0.0,66,0.00,,---,0.00,0.00,VWS V14.01,2013-01-15 23:35:00,
2013-01-15 17:40:00,26.9,17.1,30.40,WNW,303,0.0,0.0,66,0.00,,---,0.00,0.00,VWS V14.01,2013-01-15 23:40:00,
2013-01-15 17:45:00,26.7,16.5,30.40,WNW,303,0.0,0.0,65,0.00,,---,0.00,0.00,VWS V14.01,2013-01-15 23:45:00,
2013-01-15 17:50:00,26.6,17.1,30.39,WNW,303,0.0,0.0,67,0.00,,---,0.00,0.00,VWS V14.01,2013-01-15 23:50:00,
2013-01-15 17:55:00,26.4,16.9,30.39,WNW,303,0.0,1.0,67,0.00,,---,0.00,0.00,VWS V14.01,2013-01-15 23:55:00,
2013-01-15 18:00:00,26.2,16.4,30.39,WNW,303,0.0,0.0,66,0.00,,---,0.00,0.00,VWS V14.01,2013-01-16 00:00:00,
2013-01-15 18:05:00,26.1,16.3,30.39,WNW,303,0.0,0.0,66,0.00,,---,0.00,0.00,VWS V14.01,2013-01-16 00:05:00,
2013-01-15 18:10:00,25.9,16.1,30.39,WNW,303,0.0,0.0,66,0.00,,---,0.00,0.00,VWS V14.01,2013-01-16 00:10:00,
2013-01-15 18:15:00,25.8,16.4,30.39,WNW,303,0.0,0.0,67,0.00,,---,0.00,0.00,VWS V14.01,2013-01-16 00:15:00,
2013-01-15 18:20:00,25.7,16.6,30.39,WNW,303,0.0,0.0,68,0.00,,---,0.00,0.00,VWS V14.01,2013-01-16 00:20:00,
2013-01-15 18:25:00,25.6,16.5,30.39,WNW,303,0.0,0.0,68,0.00,,---,0.00,0.00,VWS V14.01,2013-01-16 00:25:00,
2013-01-15 18:30:00,25.4,16.3,30.38,WNW,303,0.0,0.0,68,0.00,,---,0.00,0.00,VWS V14.01,2013-01-16 00:30:00,
2013-01-15 18:35:00,25.6,17.2,30.39,WNW,303,0.0,0.0,70,0.00,,---,0.00,0.00,VWS V14.01,2013-01-16 00:35:00,
2013-01-15 18:40:00,25.4,16.7,30.39,WNW,303,0.0,0.0,69,0.00,,---,0.00,0.00,VWS V14.01,2013-01-16 00:40:00,
2013-01-15 18:45:00,25.3,16.6,30.39,WNW,303,0.0,0.0,69,0.00,,---,0.00,0.00,VWS V14.01,2013-01-16 00:45:00,
2013-01-15 18:50:00,25.2,16.5,30.38,WNW,303,0.0,0.0,69,0.00,,---,0.00,0.00,VWS V14.01,2013-01-16 00:50:00,
2013-01-15 18:55:00,25.0,16.3,30.38,WNW,303,0.0,0.0,69,0.00,,---,0.00,0.00,VWS V14.01,2013-01-16 00:55:00,
2013-01-15 19:00:00,24.9,16.2,30.38,WNW,303,0.0,0.0,69,0.00,,---,0.00,0.00,VWS V14.01,2013-01-16 01:00:00,
2013-01-15 19:05:00,24.8,16.4,30.38,WNW,303,0.0,0.0,70,0.00,,---,0.00,0.00,VWS V14.01,2013-01-16 01:05:00,
2013-01-15 19:10:00,24.8,16.4,30.37,WNW,303,0.0,0.0,70,0.00,,---,0.00,0.00,VWS V14.01,2013-01-16 01:10:00,
2013-01-15 19:15:00,24.7,16.3,30.37,WNW,303,0.0,0.0,70,0.00,,---,0.00,0.00,VWS V14.01,2013-01-16 01:15:00,
2013-01-15 19:20:00,24.6,16.2,30.37,WNW,303,0.0,0.0,70,0.00,,---,0.00,0.00,VWS V14.01,2013-01-16 01:20:00,
2013-01-15 19:25:00,24.4,16.0,30.37,WNW,303,0.0,0.0,70,0.00,,---,0.00,0.00,VWS V14.01,2013-01-16 01:25:00,
2013-01-15 19:30:00,24.4,16.4,30.37,WNW,303,0.0,0.0,71,0.00,,---,0.00,0.00,VWS V14.01,2013-01-16 01:30:00,
2013-01-15 19:35:00,24.3,16.3,30.37,WNW,303,0.0,0.0,71,0.00,,---,0.00,0.00,VWS V14.01,2013-01-16 01:35:00,
2013-01-15 19:40:00,24.3,16.3,30.36,WNW,303,0.0,0.0,71,0.00,,---,0.00,0.00,VWS V14.01,2013-01-16 01:40:00,
2013-01-15 19:45:00,24.3,16.6,30.36,WNW,303,0.0,0.0,72,0.00,,---,0.00,0.00,VWS V14.01,2013-01-16 01:45:00,
2013-01-15 19:50:00,24.4,17.0,30.36,WNW,303,0.0,0.0,73,0.00,,---,0.00,0.00,VWS V14.01,2013-01-16 01:50:00,
2013-01-15 19:55:00,24.3,16.6,30.36,WNW,303,0.0,0.0,72,0.00,,---,0.00,0.00,VWS V14.01,2013-01-16 01:55:00,
2013-01-15 20:00:00,24.2,16.5,30.36,WNW,303,0.0,0.0,72,0.00,,---,0.00,0.00,VWS V14.01,2013-01-16 02:00:00,
2013-01-15 20:05:00,24.4,17.3,30.35,WNW,303,0.0,0.0,74,0.00,,---,0.00,0.00,VWS V14.01,2013-01-16 02:05:00,
2013-01-15 20:10:00,24.4,17.3,30.35,WNW,303,0.0,0.0,74,0.00,,---,0.00,0.00,VWS V14.01,2013-01-16 02:10:00,
2013-01-15 20:15:00,24.2,16.8,30.34,WNW,303,0.0,0.0,73,0.00,,---,0.00,0.00,VWS V14.01,2013-01-16 02:15:00,
2013-01-15 20:20:00,24.2,16.8,30.34,WNW,303,0.0,0.0,73,0.00,,---,0.00,0.00,VWS V14.01,2013-01-16 02:20:00,
2013-01-15 20:25:00,24.0,16.6,30.34,WNW,303,0.0,0.0,73,0.00,,---,0.00,0.00,VWS V14.01,2013-01-16 02:25:00,
2013-01-15 20:30:00,23.9,16.5,30.34,WNW,303,0.0,0.0,73,0.00,,---,0.00,0.00,VWS V14.01,2013-01-16 02:30:00,
2013-01-15 20:35:00,23.8,16.4,30.34,WNW,303,0.0,0.0,73,0.00,,---,0.00,0.00,VWS V14.01,2013-01-16 02:35:00,
2013-01-15 20:40:00,23.6,16.2,30.34,WNW,303,0.0,0.0,73,0.00,,---,0.00,0.00,VWS V14.01,2013-01-16 02:40:00,
2013-01-15 20:45:00,23.6,16.2,30.34,WNW,303,0.0,0.0,73,0.00,,---,0.00,0.00,VWS V14.01,2013-01-16 02:45:00,
2013-01-15 20:50:00,23.5,16.5,30.34,WNW,303,0.0,0.0,74,0.00,,---,0.00,0.00,VWS V14.01,2013-01-16 02:50:00,
2013-01-15 20:55:00,23.7,17.3,30.34,WNW,303,0.0,0.0,76,0.00,,---,0.00,0.00,VWS V14.01,2013-01-16 02:55:00,
2013-01-15 21:00:00,23.6,17.2,30.33,WNW,303,0.0,0.0,76,0.00,,---,0.00,0.00,VWS V14.01,2013-01-16 03:00:00,
2013-01-15 21:05:00,23.4,17.0,30.33,WNW,303,0.0,0.0,76,0.00,,---,0.00,0.00,VWS V14.01,2013-01-16 03:05:00,
2013-01-15 21:10:00,23.4,17.0,30.33,WNW,303,0.0,0.0,76,0.00,,---,0.00,0.00,VWS V14.01,2013-01-16 03:10:00,
2013-01-15 21:15:00,23.2,16.5,30.33,WNW,303,0.0,0.0,75,0.00,,---,0.00,0.00,VWS V14.01,2013-01-16 03:15:00,
2013-01-15 21:20:00,23.1,16.4,30.33,WNW,303,0.0,0.0,75,0.00,,---,0.00,0.00,VWS V14.01,2013-01-16 03:20:00,
2013-01-15 21:25:00,23.0,16.3,30.33,WNW,303,0.0,0.0,75,0.00,,---,0.00,0.00,VWS V14.01,2013-01-16 03:25:00,
2013-01-15 21:30:00,23.0,16.6,30.33,WNW,303,0.0,0.0,76,0.00,,---,0.00,0.00,VWS V14.01,2013-01-16 03:30:00,
2013-01-15 21:35:00,22.9,16.5,30.33,WNW,303,0.0,0.0,76,0.00,,---,0.00,0.00,VWS V14.01,2013-01-16 03:35:00,
2013-01-15 21:40:00,22.7,16.3,30.32,WNW,303,0.0,0.0,76,0.00,,---,0.00,0.00,VWS V14.01,2013-01-16 03:40:00,
2013-01-15 21:45:00,22.6,16.5,30.33,WNW,303,0.0,0.0,77,0.00,,---,0.00,0.00,VWS V14.01,2013-01-16 03:45:00,
2013-01-15 21:50:00,22.4,16.3,30.33,WNW,303,0.0,0.0,77,0.00,,---,0.00,0.00,VWS V14.01,2013-01-16 03:50:00,
2013-01-15 21:55:00,22.3,16.2,30.32,WNW,303,0.0,0.0,77,0.00,,---,0.00,0.00,VWS V14.01,2013-01-16 03:55:00,
2013-01-15 22:00:00,22.1,16.0,30.32,WNW,303,0.0,0.0,77,0.00,,---,0.00,0.00,VWS V14.01,2013-01-16 04:00:00,
2013-01-15 22:05:00,22.0,15.9,30.32,WNW,303,0.0,0.0,77,0.00,,---,0.00,0.00,VWS V14.01,2013-01-16 04:05:00,
2013-01-15 22:10:00,21.8,15.7,30.32,WNW,303,0.0,0.0,77,0.00,,---,0.00,0.00,VWS V14.01,2013-01-16 04:10:00,
2013-01-15 22:14:00,21.7,15.6,30.31,WNW,303,0.0,0.0,77,0.00,,---,0.00,0.00,VWS V14.01,2013-01-16 04:14:00,
2013-01-15 22:19:00,21.5,15.4,30.31,WNW,303,0.0,0.0,77,0.00,,---,0.00,0.00,VWS V14.01,2013-01-16 04:19:00,
2013-01-15 22:24:00,21.3,15.5,30.31,WNW,303,0.0,0.0,78,0.00,,---,0.00,0.00,VWS V14.01,2013-01-16 04:24:00,
2013-01-15 22:29:00,21.2,15.4,30.31,WNW,303,0.0,0.0,78,0.00,,---,0.00,0.00,VWS V14.01,2013-01-16 04:29:00,
2013-01-15 22:35:00,21.1,15.3,30.31,WNW,303,0.0,0.0,78,0.00,,---,0.00,0.00,VWS V14.01,2013-01-16 04:35:00,
2013-01-15 22:39:00,21.0,15.2,30.31,WNW,303,0.0,0.0,78,0.00,,---,0.00,0.00,VWS V14.01,2013-01-16 04:39:00,
2013-01-15 22:44:00,20.9,15.4,30.31,WNW,303,0.0,0.0,79,0.00,,---,0.00,0.00,VWS V14.01,2013-01-16 04:44:00,
2013-01-15 22:49:00,20.8,15.0,30.31,WNW,303,0.0,0.0,78,0.00,,---,0.00,0.00,VWS V14.01,2013-01-16 04:49:00,
2013-01-15 22:54:00,20.7,15.2,30.31,WNW,303,0.0,0.0,79,0.00,,---,0.00,0.00,VWS V14.01,2013-01-16 04:54:00,
2013-01-15 22:59:00,20.6,15.1,30.31,WNW,303,0.0,0.0,79,0.00,,---,0.00,0.00,VWS V14.01,2013-01-16 04:59:00,
2013-01-15 23:00:00,20.6,15.1,30.31,WNW,303,0.0,0.0,79,0.00,,---,0.00,0.00,VWS V14.01,2013-01-16 05:00:00,
2013-01-15 23:05:00,20.6,15.4,30.31,WNW,303,0.0,0.0,80,0.00,,---,0.00,0.00,VWS V14.01,2013-01-16 05:05:00,
2013-01-15 23:10:00,20.5,15.3,30.31,WNW,303,0.0,0.0,80,0.00,,---,0.00,0.00,VWS V14.01,2013-01-16 05:10:00,
2013-01-15 23:15:00,20.4,15.5,30.30,WNW,303,0.0,0.0,81,0.00,,---,0.00,0.00,VWS V14.01,2013-01-16 05:15:00,
2013-01-15 23:20:00,20.2,15.3,30.30,WNW,303,0.0,0.0,81,0.00,,---,0.00,0.00,VWS V14.01,2013-01-16 05:20:00,
2013-01-15 23:25:00,20.0,15.1,30.29,WNW,303,0.0,0.0,81,0.00,,---,0.00,0.00,VWS V14.01,2013-01-16 05:25:00,
2013-01-15 23:30:00,20.0,15.1,30.30,WNW,303,0.0,0.0,81,0.00,,---,0.00,0.00,VWS V14.01,2013-01-16 05:30:00,
2013-01-15 23:35:00,20.1,15.5,30.30,WNW,303,0.0,0.0,82,0.00,,---,0.00,0.00,VWS V14.01,2013-01-16 05:35:00,
2013-01-15 23:40:00,20.1,15.5,30.29,WNW,303,0.0,0.0,82,0.00,,---,0.00,0.00,VWS V14.01,2013-01-16 05:40:00,
2013-01-15 23:45:00,20.0,15.7,30.29,WNW,303,0.0,0.0,83,0.00,,---,0.00,0.00,VWS V14.01,2013-01-16 05:45:00,
2013-01-15 23:50:00,19.9,15.6,30.29,WNW,303,0.0,0.0,83,0.00,,---,0.00,0.00,VWS V14.01,2013-01-16 05:50:00,
2013-01-15 23:55:00,19.9,15.6,30.29,WNW,303,0.0,0.0,83,0.00,,---,0.00,0.00,VWS V14.01,2013-01-16 05:55:00,